Weather History for Pine Ridge, SD

Change the Weather History Date:

Tuesday, May 8, 2012

  Actual Average Record
Temperature  
Mean Temperature 47 °F 53 °F  
Max Temperature 64 °F 67 °F 86 °F (2011)
Min Temperature 30 °F 38 °F 27 °F (1999)
Degree Days  
Heating Degree Days 18 12  
Month to date heating degree days 80 108  
Since 1 July heating degree days 6104 6928  
Cooling Degree Days 0 0  
Month to date cooling degree days 0 0  
Year to date cooling degree days 1 0  
Moisture  
Dew Point 29 °F    
Average Humidity 56    
Maximum Humidity 85    
Minimum Humidity 27    
Precipitation  
Precipitation 0.00 in 0.08 in 0.82 in (2003)
Month to date precipitation 0.45 0.76  
Year to date precipitation 4.69 4.33  
Sea Level Pressure  
Sea Level Pressure 30.17 in    
Wind  
Wind Speed 7 mph (North)    
Max Wind Speed 21 mph    
Max Gust Speed 26 mph    
Visibility 10 miles    
Events      
T = Trace of Precipitation, MM = Missing Value Source: NWS Daily Summary

Daily Weather History Graph

Daily Weather History Graph

Search for Another Location

Airport:

Trip Planner

Search our weather history database for the weather conditions in past years. The results will help you decide how hot, cold, wet, or windy it might be!

Date:

Astronomy

May. 08, 2012 Rise Set
Actual Time 5:34 AM MDT 7:59 PM MDT
Civil Twilight 5:02 AM MDT 8:31 PM MDT
Nautical Twilight 4:22 AM MDT 9:11 PM MDT
Astronomical Twilight 3:38 AM MDT 9:56 PM MDT
Moon 11:13 PM MDT (5/8) 7:42 AM MDT (5/8)
Length of Visible Light 15h 29m
Length of Day
14h 25m
Waning Gibbous, 90% of the Moon is Illuminated
May 8
Waning Gibbous
May 12
Last Quarter
May 20
New
May 28
First Quarter
Jun 4
Full

Hourly Weather History & Observations

Time (MDT) Temp. Windchill Dew Point Humidity Pressure Visibility Wind Dir Wind Speed Gust Speed Precip Events Conditions
12:52 AM 36.0 °F - 28.9 °F 76% 30.21 in 10.0 mi Calm Calm - N/A   Clear
1:52 AM 33.1 °F - 28.0 °F 82% 30.20 in 10.0 mi Calm Calm - N/A   Clear
2:52 AM 32.0 °F 28.7 °F 27.0 °F 82% 30.21 in 10.0 mi West 3.5 mph - N/A   Clear
3:52 AM 30.9 °F 27.5 °F 26.1 °F 82% 30.21 in 10.0 mi SW 3.5 mph - N/A   Clear
4:52 AM 30.9 °F - 25.0 °F 79% 30.21 in 10.0 mi Calm Calm - N/A   Clear
5:52 AM 32.0 °F 28.7 °F 25.0 °F 75% 30.22 in 10.0 mi West 3.5 mph - N/A   Clear
6:52 AM 37.0 °F - 28.0 °F 70% 30.22 in 10.0 mi Calm Calm - N/A   Clear
7:52 AM 44.1 °F 41.5 °F 30.0 °F 58% 30.21 in 10.0 mi WNW 4.6 mph - N/A   Clear
8:52 AM 51.1 °F - 30.0 °F 44% 30.20 in 10.0 mi NW 6.9 mph - N/A   Clear
9:52 AM 55.0 °F - 27.0 °F 34% 30.20 in 10.0 mi NNW 11.5 mph 26.5 mph N/A   Clear
10:52 AM 57.9 °F - 25.0 °F 28% 30.20 in 10.0 mi NNW 16.1 mph 25.3 mph N/A   Clear
11:52 AM 59.0 °F - 26.1 °F 28% 30.19 in 10.0 mi North 18.4 mph 23.0 mph N/A   Clear
12:52 PM 61.0 °F - 28.0 °F 29% 30.17 in 10.0 mi North 16.1 mph 23.0 mph N/A   Clear
1:52 PM 62.1 °F - 28.0 °F 28% 30.16 in 10.0 mi NW 12.7 mph 21.9 mph N/A   Clear
2:52 PM 63.0 °F - 30.9 °F 30% 30.14 in 10.0 mi NNW 12.7 mph 20.7 mph N/A   Partly Cloudy
4:52 PM 62.1 °F - 30.9 °F 31% 30.12 in 10.0 mi NE 6.9 mph - N/A   Clear
5:52 PM 62.1 °F - 30.0 °F 30% 30.12 in 10.0 mi NNE 6.9 mph - N/A   Clear
6:52 PM 60.1 °F - 30.0 °F 32% 30.11 in 10.0 mi NNE 8.1 mph - N/A   Clear
7:52 PM 53.1 °F - 32.0 °F 45% 30.11 in 10.0 mi NE 5.8 mph - N/A   Clear
8:52 PM 45.0 °F 41.8 °F 34.0 °F 65% 30.13 in 10.0 mi East 5.8 mph - N/A   Clear
9:52 PM 42.1 °F 37.7 °F 32.0 °F 67% 30.14 in 10.0 mi ENE 6.9 mph - N/A   Clear
10:52 PM 39.9 °F 35.1 °F 33.1 °F 77% 30.13 in 10.0 mi ENE 6.9 mph - N/A   Clear
11:52 PM 37.9 °F - 32.0 °F 79% 30.14 in 10.0 mi Calm Calm - N/A   Clear